Danbury, CT

10:09 AM EDT on March 25, 2017 (GMT -0400)
Danbury Municipal

Weather History for KDXR - September, 2014

Change the Weather History Date:

Monday, September 29, 2014

  Actual Average Record
Temperature  
Mean Temperature 67 °F -  
Max Temperature 77 °F 66 °F 84 °F (1948)
Min Temperature 57 °F 45 °F 28 °F (1957)
Cooling Degree Days 2    
Growing Degree Days 17 (Base 50)    
Moisture  
Dew Point 58 °F    
Average Humidity 79    
Maximum Humidity 93    
Minimum Humidity 43    
Precipitation  
Precipitation 0.00 in - - ()
Sea Level Pressure  
Sea Level Pressure 29.97 in    
Wind  
Wind Speed 1 mph (SE)    
Max Wind Speed 5 mph    
Max Gust Speed -    
Visibility 8 miles    
Events Rain    
Averages and records for this station are not official NWS values.
T = Trace of Precipitation, MM = Missing Value Source: NWS Daily Summary

Daily Weather History Graph

Daily Weather History Graph

Search for Another Location

Airport or City:

Trip Planner

Search our weather history database for the weather conditions in past years. The results will help you decide how hot, cold, wet, or windy it might be!

Date:

Astronomy

Sep. 29, 2014 Rise Set
Actual Time 6:48 AM EDT 6:39 PM EDT
Civil Twilight 6:20 AM EDT 7:06 PM EDT
Nautical Twilight 5:48 AM EDT 7:38 PM EDT
Astronomical Twilight 5:16 AM EDT 8:11 PM EDT
Moon 12:00 PM EDT (9/29) 10:07 PM EDT (9/29)
Length of Visible Light 12h 45m
Length of Day
11h 50m
Waxing Crescent, 27% of the Moon is Illuminated
Sep 29
Waxing Crescent
Oct 1
First Quarter
Oct 8
Full
Oct 15
Last Quarter
Oct 23
New

Hourly Weather History & Observations

Time (EDT) Temp. Dew Point Humidity Pressure Visibility Wind Dir Wind Speed Gust Speed Precip Events Conditions
12:53 AM 59.0 °F 57.0 °F 93% 30.01 in 7.0 mi Calm Calm - N/A   Clear
1:53 AM 59.0 °F 55.9 °F 90% 30.01 in 7.0 mi Calm Calm - N/A   Clear
2:53 AM 57.9 °F 55.0 °F 90% 30.00 in 6.0 mi Calm Calm - N/A   Clear
3:53 AM 57.0 °F 55.0 °F 93% 30.00 in 6.0 mi Calm Calm - N/A   Clear
4:53 AM 57.0 °F 55.0 °F 93% 30.00 in 7.0 mi Calm Calm - N/A   Clear
5:53 AM 57.9 °F 55.0 °F 90% 29.99 in 7.0 mi Calm Calm - N/A   Clear
6:53 AM 57.9 °F 55.9 °F 93% 29.99 in 7.0 mi Calm Calm - N/A   Clear
7:53 AM 57.9 °F 55.9 °F 93% 30.00 in 5.0 mi Calm Calm - N/A   Clear
8:53 AM 61.0 °F 57.9 °F 90% 30.00 in 5.0 mi Calm Calm - N/A   Clear
9:53 AM 64.0 °F 59.0 °F 84% 29.99 in 8.0 mi Calm Calm - N/A   Clear
10:53 AM 72.0 °F 57.0 °F 59% 29.99 in 10.0 mi Calm Calm - N/A   Clear
11:53 AM 75.0 °F 55.0 °F 50% 29.97 in 10.0 mi ENE 3.5 mph - N/A   Clear
12:53 PM 77.0 °F 55.0 °F 47% 29.96 in 10.0 mi East 4.6 mph - N/A   Clear
1:53 PM 77.0 °F 53.1 °F 43% 29.95 in 10.0 mi Calm Calm - N/A   Clear
2:53 PM 75.0 °F 59.0 °F 57% 29.94 in 10.0 mi WNW 3.5 mph - N/A   Clear
3:53 PM 75.0 °F 60.1 °F 60% 29.94 in 10.0 mi Calm Calm - N/A   Clear
4:53 PM 73.0 °F 63.0 °F 71% 29.93 in 10.0 mi South 3.5 mph - N/A   Clear
5:53 PM 70.0 °F 63.0 °F 78% 29.93 in 10.0 mi Calm Calm - N/A   Clear
6:53 PM 68.0 °F 63.0 °F 84% 29.93 in 10.0 mi Calm Calm - N/A   Partly Cloudy
7:53 PM 66.9 °F 62.1 °F 84% 29.94 in 10.0 mi South 4.6 mph - N/A   Mostly Cloudy
8:53 PM 66.9 °F 60.1 °F 79% 29.95 in 10.0 mi Calm Calm - N/A   Partly Cloudy
9:53 PM 64.0 °F 60.1 °F 87% 29.95 in 10.0 mi Calm Calm - N/A   Clear
10:53 PM 64.0 °F 60.1 °F 87% 29.96 in 10.0 mi Calm Calm - N/A   Clear
11:53 PM 63.0 °F 60.1 °F 90% 29.94 in 10.0 mi Calm Calm - 0.00 in Rain Light Rain